Date,TemperatureHighF,TemperatureAvgF,TemperatureLowF,DewpointHighF,DewpointAvgF,DewpointLowF,HumidityHigh,HumidityAvg,HumidityLow,PressureMaxIn,PressureMinIn,WindSpeedMaxMPH,WindSpeedAvgMPH,GustSpeedMaxMPH,PrecipitationSumIn
2013-11-1,48.7,41.7,36.8,39.0,37.0,34.0,95,84,65,29.91,29.47,9,1,15,0.00
2013-11-2,50.1,39.6,30.7,37.0,32.9,29.0,94,78,56,30.14,29.91,6,0,11,0.00
2013-11-3,53.8,44.6,35.7,38.0,34.4,31.0,87,69,47,30.15,29.89,23,8,37,0.00
2013-11-4,48.0,43.0,34.1,44.0,37.5,31.0,94,81,64,30.19,29.84,17,4,21,0.43
2013-11-5,40.4,33.5,29.7,33.0,29.8,26.0,97,87,58,30.31,30.13,6,0,10,0.02
2013-11-6,38.9,30.6,25.4,31.0,26.9,24.0,97,86,64,30.23,30.12,9,2,10,0.01
2013-11-7,36.2,28.3,20.4,31.0,26.1,19.0,97,91,73,30.32,30.23,11,1,12,0.07
2013-11-8,42.1,34.0,23.6,38.0,29.1,22.0,96,83,62,30.27,29.65,12,4,20,0.07
2013-11-9,41.9,39.4,35.3,39.0,33.1,28.0,94,78,65,30.27,29.68,22,9,29,0.00
2013-11-10,39.2,35.8,31.5,32.0,29.9,27.0,86,79,71,30.39,30.17,15,4,21,0.00
2013-11-11,35.6,21.7,13.4,31.0,12.1,7.0,83,67,50,30.84,30.20,17,8,23,0.00
2013-11-12,27.6,18.4,9.5,16.0,10.4,6.0,86,72,50,30.90,30.53,12,4,17,0.00
2013-11-13,50.2,34.8,21.1,35.0,26.3,15.0,86,72,54,30.52,29.93,20,9,26,0.00
2013-11-14,47.9,37.6,33.9,39.0,33.8,32.0,92,86,71,29.92,29.82,9,3,10,0.00
2013-11-15,54.1,41.3,31.3,40.0,35.6,30.0,95,81,57,29.90,29.66,11,3,18,0.00
2013-11-16,46.0,43.3,39.3,46.0,41.5,36.0,98,93,77,29.66,29.28,10,3,16,0.12
2013-11-17,42.9,38.6,30.2,42.0,35.2,24.0,98,88,78,29.89,29.33,18,7,26,0.01
2013-11-18,33.6,28.4,23.3,24.0,21.4,20.0,85,75,62,30.34,29.89,22,6,27,0.00
2013-11-19,45.9,34.6,22.4,33.0,26.5,19.0,89,74,55,30.34,29.94,20,8,25,0.00
2013-11-20,45.2,42.0,37.0,35.0,32.2,29.0,90,69,57,30.09,29.91,12,5,24,0.00
2013-11-21,37.3,28.8,20.8,35.0,24.1,14.0,94,82,71,30.62,30.09,16,6,22,0.00
2013-11-22,32.5,19.9,8.7,16.0,9.6,2.0,86,66,33,30.77,30.56,20,6,22,0.00
2013-11-23,16.5,9.4,3.8,4.0,1.3,-2.0,86,71,45,30.98,30.78,11,4,19,0.00
2013-11-24,32.8,20.2,5.4,19.0,10.9,2.0,87,69,52,30.83,30.03,23,10,31,0.00
2013-11-25,37.8,32.3,26.8,28.0,24.5,19.0,90,73,58,30.17,29.96,24,8,29,0.00
2013-11-26,27.6,18.4,11.1,21.0,8.0,4.0,79,64,51,30.50,30.17,19,8,27,0.00
2013-11-27,22.8,15.6,5.0,12.0,8.3,3.0,91,74,59,30.51,30.17,12,3,15,0.00
2013-11-28,23.9,20.5,10.9,16.0,12.5,8.0,89,71,62,30.61,30.17,11,3,20,0.00
2013-11-29,31.2,21.6,8.6,22.0,15.3,6.0,92,78,61,30.62,30.21,14,4,18,0.00
2013-11-30,38.1,29.8,22.2,28.0,24.0,20.0,94,79,65,30.27,30.11,10,2,13,0.00